Location: Newark
(42.9277°N, 71.8621°W)
Time: 19:23:30
(UTC+00:00)

Transit 4A - Pass Details

Date: 13 May 2021
Orbit: 872 x 973 km, 66.8° (Epoch: 15 June)

Event Time Altitude Azimuth Distance (km) Brightness Sun altitude
Rises 00:46:25 0° 257° (WSW) 3,589 11.6 -8.0°
Reaches altitude 10° 00:49:41 10° 273° (W) 2,629 11.3 -8.5°
Maximum altitude 00:54:08 21° 320° (NW) 1,957 10.8 -9.2°
Drops below altitude 10° 00:58:31 10° 8° (N) 2,585 10.6 -9.8°
Sets 01:01:42 0° 24° (NNE) 3,511 11.1 -10.3°
